TimeCDT,TemperatureF,Dew PointF,Humidity,Sea Level PressureIn,VisibilityMPH,Wind Direction,Wind SpeedMPH,Gust SpeedMPH,PrecipitationIn,Events,Conditions,WindDirDegrees,DateUTC
12:15 AM,42.8,19.4,39,30.09,10.0,ESE,6.9,-,N/A,,Overcast,120,2012-10-13 05:15:00
12:35 AM,44.6,19.4,37,30.09,10.0,ESE,6.9,-,N/A,,Overcast,120,2012-10-13 05:35:00
12:55 AM,44.6,21.2,39,30.08,10.0,ESE,5.8,-,N/A,,Overcast,120,2012-10-13 05:55:00
1:15 AM,44.6,30.2,57,30.08,10.0,SSE,11.5,17.3,N/A,Thunderstorm,Unknown,160,2012-10-13 06:15:00
1:55 AM,42.8,33.8,70,30.05,7.0,SE,12.7,-,N/A,Thunderstorm,Overcast,130,2012-10-13 06:55:00
2:15 AM,42.8,33.8,70,30.04,10.0,ESE,10.4,-,N/A,,Overcast,120,2012-10-13 07:15:00
2:35 AM,41.0,35.6,81,30.03,7.0,ESE,10.4,-,N/A,Rain,Rain,120,2012-10-13 07:35:00
2:55 AM,41.0,35.6,81,30.02,10.0,ESE,6.9,-,N/A,,Overcast,110,2012-10-13 07:55:00
3:35 AM,41.0,37.4,87,30.00,7.0,East,8.1,-,N/A,,Overcast,100,2012-10-13 08:35:00
3:55 AM,39.2,37.4,93,29.98,2.5,ESE,10.4,-,N/A,,Overcast,110,2012-10-13 08:55:00
4:15 AM,39.2,37.4,93,29.96,2.5,East,9.2,-,N/A,,Drizzle,100,2012-10-13 09:15:00
4:35 AM,39.2,37.4,93,29.95,2.0,ESE,10.4,-,N/A,,Light Drizzle,110,2012-10-13 09:35:00
5:35 AM,41.0,39.2,93,29.93,2.0,ESE,8.1,-,0.01,,Light Drizzle,110,2012-10-13 10:35:00
5:55 AM,41.0,39.2,93,29.91,2.0,ESE,9.2,-,0.01,Thunderstorm,Overcast,120,2012-10-13 10:55:00
6:15 AM,41.0,41.0,100,29.89,2.0,ESE,6.9,-,N/A,,Overcast,120,2012-10-13 11:15:00
6:35 AM,41.0,41.0,100,29.88,3.0,SE,10.4,-,N/A,,Overcast,130,2012-10-13 11:35:00
6:55 AM,42.8,41.0,93,29.88,2.5,ESE,6.9,-,N/A,,Overcast,120,2012-10-13 11:55:00
7:15 AM,42.8,41.0,93,29.88,2.5,SE,6.9,-,N/A,Thunderstorm,Overcast,130,2012-10-13 12:15:00
7:55 AM,42.8,41.0,93,29.87,1.8,ESE,4.6,-,N/A,,Light Drizzle,110,2012-10-13 12:55:00
8:15 AM,42.8,41.0,93,29.86,1.5,ESE,6.9,-,N/A,,Light Drizzle,110,2012-10-13 13:15:00
8:35 AM,42.8,42.8,100,29.86,1.8,ESE,8.1,-,N/A,,Light Drizzle,120,2012-10-13 13:35:00
8:55 AM,42.8,42.8,100,29.85,1.2,ESE,8.1,-,N/A,,Overcast,120,2012-10-13 13:55:00
9:15 AM,42.8,42.8,100,29.84,1.0,ESE,8.1,-,N/A,,Overcast,110,2012-10-13 14:15:00
9:35 AM,42.8,42.8,100,29.85,1.2,ESE,8.1,-,N/A,,Overcast,110,2012-10-13 14:35:00
9:55 AM,42.8,42.8,100,29.84,1.5,ESE,8.1,-,N/A,,Overcast,110,2012-10-13 14:55:00
10:15 AM,42.8,42.8,100,29.84,2.5,East,6.9,-,N/A,,Overcast,100,2012-10-13 15:15:00
10:55 AM,44.6,42.8,93,29.80,1.8,ESE,6.9,-,0.01,,Overcast,110,2012-10-13 15:55:00
11:35 AM,44.6,44.6,100,29.79,4.0,SE,8.1,-,N/A,,Drizzle,130,2012-10-13 16:35:00
11:55 AM,44.6,44.6,100,29.79,5.0,ESE,6.9,-,N/A,Rain,Light Rain,120,2012-10-13 16:55:00
12:15 PM,46.4,44.6,93,29.79,5.0,ESE,4.6,-,N/A,,Drizzle,120,2012-10-13 17:15:00
12:35 PM,46.4,44.6,93,29.78,7.0,ESE,5.8,-,N/A,,Light Drizzle,110,2012-10-13 17:35:00
12:55 PM,46.4,46.4,100,29.76,7.0,East,4.6,-,N/A,,Overcast,90,2012-10-13 17:55:00
1:15 PM,46.4,46.4,100,29.75,7.0,East,4.6,-,0.01,,Light Drizzle,90,2012-10-13 18:15:00
1:35 PM,46.4,46.4,100,29.74,3.0,ENE,3.5,-,0.01,Rain,Rain,60,2012-10-13 18:35:00
1:55 PM,46.4,46.4,100,29.73,4.0,ENE,3.5,-,0.01,,Light Drizzle,70,2012-10-13 18:55:00
2:15 PM,46.4,46.4,100,29.72,4.0,ENE,3.5,-,N/A,,Light Drizzle,70,2012-10-13 19:15:00
2:35 PM,48.2,46.4,93,29.71,1.8,East,3.5,-,N/A,Rain,Rain,90,2012-10-13 19:35:00
2:55 PM,48.2,46.4,93,29.71,1.8,NE,3.5,-,0.02,,Drizzle,50,2012-10-13 19:55:00
3:15 PM,48.2,46.4,93,29.71,2.0,ENE,3.5,-,0.01,,Drizzle,60,2012-10-13 20:15:00
3:35 PM,48.2,48.2,100,29.71,1.8,East,5.8,-,0.03,Rain,Rain,80,2012-10-13 20:35:00
3:55 PM,50.0,48.2,94,29.71,2.0,ENE,3.5,-,0.05,Rain,Rain,60,2012-10-13 20:55:00
4:15 PM,50.0,48.2,94,29.71,4.0,Calm,Calm,-,0.01,Rain,Light Rain,0,2012-10-13 21:15:00
4:55 PM,50.0,48.2,94,29.70,2.5,ENE,3.5,-,0.01,,Overcast,60,2012-10-13 21:55:00
5:15 PM,50.0,48.2,94,29.70,5.0,ENE,4.6,-,N/A,,Overcast,70,2012-10-13 22:15:00
5:35 PM,50.0,48.2,94,29.71,5.0,NNE,3.5,-,N/A,,Overcast,30,2012-10-13 22:35:00
5:55 PM,50.0,48.2,94,29.71,5.0,NNE,3.5,-,N/A,,Overcast,30,2012-10-13 22:55:00
6:15 PM,50.0,48.2,94,29.71,5.0,North,4.6,-,N/A,,Overcast,360,2012-10-13 23:15:00
6:35 PM,48.2,48.2,100,29.71,5.0,NNE,4.6,-,N/A,,Overcast,20,2012-10-13 23:35:00
7:55 PM,48.2,46.4,93,29.74,4.0,Calm,Calm,-,N/A,,Overcast,0,2012-10-14 00:55:00
8:15 PM,48.2,46.4,93,29.73,5.0,North,4.6,-,N/A,,Overcast,360,2012-10-14 01:15:00
8:35 PM,48.2,46.4,93,29.73,5.0,North,6.9,-,N/A,,Overcast,360,2012-10-14 01:35:00
9:15 PM,48.2,46.4,93,29.75,10.0,NNE,4.6,-,N/A,,Overcast,20,2012-10-14 02:15:00
9:35 PM,48.2,46.4,93,29.74,7.0,NNE,3.5,-,N/A,Rain,Light Rain,20,2012-10-14 02:35:00
9:55 PM,48.2,46.4,93,29.73,7.0,North,6.9,-,N/A,,Overcast,360,2012-10-14 02:55:00
10:15 PM,48.2,46.4,93,29.74,10.0,North,5.8,-,N/A,,Overcast,350,2012-10-14 03:15:00
10:35 PM,48.2,46.4,93,29.75,10.0,North,5.8,-,N/A,,Overcast,360,2012-10-14 03:35:00
10:55 PM,48.2,46.4,93,29.76,10.0,NNW,9.2,-,N/A,,Overcast,340,2012-10-14 03:55:00
11:15 PM,48.2,46.4,93,29.76,10.0,NNW,5.8,-,N/A,,Overcast,340,2012-10-14 04:15:00
11:35 PM,48.2,46.4,93,29.74,7.0,North,4.6,-,N/A,,Overcast,350,2012-10-14 04:35:00